SAS1781 EKCH-LROP

Flight info

Callsign SAS1781
Flight time 2h 5m
Altitude 37000
Route SIMEG Z493 BILRA DCT ROBOV DCT ROGAL DCT LENOV DCT KENIN DCT DENAK
Aircraft A319/M-SDE3FGIJ1RWXY/LB1

Departure

Time 2026-05-07 10:55
Airport Copenhagen Kastrup Airport (EKCH)

Arrival

Time 2026-05-07 13:00
Airport Bucharest Henri Coandă International Airport (LROP)
Time Latitude Longitude Altitude Speed Heading
2026-05-07 10:22 55.62882 12.63364 18 ft 0 kts 327°
2026-05-07 10:43 55.62880 12.63365 18 ft 1 kts 328°
2026-05-07 10:44 55.62868 12.63383 18 ft 2 kts 309°
2026-05-07 10:44 55.62860 12.63406 18 ft 2 kts 295°
2026-05-07 10:44 55.62855 12.63432 18 ft 2 kts 281°
2026-05-07 10:44 55.62854 12.63460 18 ft 2 kts 265°
2026-05-07 10:45 55.62855 12.63486 18 ft 2 kts 267°
2026-05-07 10:45 55.62856 12.63513 18 ft 1 kts 266°
2026-05-07 10:45 55.62856 12.63517 18 ft 0 kts 266°
2026-05-07 10:47 55.62856 12.63510 18 ft 2 kts 266°
2026-05-07 10:47 55.62853 12.63449 18 ft 5 kts 264°
2026-05-07 10:47 55.62826 12.63387 18 ft 7 kts 214°
2026-05-07 10:48 55.62784 12.63337 18 ft 7 kts 214°
2026-05-07 10:48 55.62734 12.63318 18 ft 8 kts 151°
2026-05-07 10:48 55.62694 12.63411 18 ft 10 kts 124°
2026-05-07 10:48 55.62639 12.63495 18 ft 11 kts 167°
2026-05-07 10:49 55.62556 12.63537 17 ft 13 kts 143°
2026-05-07 10:49 55.62491 12.63697 15 ft 17 kts 123°
2026-05-07 10:49 55.62419 12.63893 15 ft 19 kts 123°
2026-05-07 10:49 55.62339 12.64110 15 ft 19 kts 124°
2026-05-07 10:50 55.62265 12.64311 15 ft 16 kts 123°
2026-05-07 10:50 55.62191 12.64411 15 ft 14 kts 172°
2026-05-07 10:50 55.62087 12.64443 15 ft 16 kts 170°
2026-05-07 10:50 55.61972 12.64480 15 ft 16 kts 169°
2026-05-07 10:51 55.61858 12.64520 15 ft 16 kts 169°
2026-05-07 10:51 55.61740 12.64559 15 ft 17 kts 169°
2026-05-07 10:51 55.61628 12.64509 15 ft 17 kts 214°
2026-05-07 10:51 55.61524 12.64391 15 ft 17 kts 213°
2026-05-07 10:52 55.61419 12.64269 16 ft 16 kts 214°
2026-05-07 10:52 55.61317 12.64150 15 ft 17 kts 213°
2026-05-07 10:52 55.61214 12.64031 16 ft 17 kts 213°
2026-05-07 10:52 55.61108 12.63909 17 ft 17 kts 213°
2026-05-07 10:53 55.61002 12.63790 16 ft 18 kts 213°
2026-05-07 10:53 55.60898 12.63671 16 ft 17 kts 213°
2026-05-07 10:53 55.60807 12.63581 15 ft 13 kts 182°
2026-05-07 10:53 55.60737 12.63683 15 ft 13 kts 130°
2026-05-07 10:54 55.60679 12.63810 15 ft 8 kts 129°
2026-05-07 10:54 55.60690 12.63897 15 ft 9 kts 43°
2026-05-07 10:54 55.60781 12.64037 15 ft 43 kts 41°
2026-05-07 10:54 55.61211 12.64701 15 ft 115 kts 41°
2026-05-07 10:55 55.61963 12.65868 143 ft 159 kts 41°
2026-05-07 10:55 55.62799 12.67182 810 ft 159 kts 41°
2026-05-07 10:55 55.63637 12.68506 1483 ft 164 kts 40°
2026-05-07 10:55 55.64546 12.69936 2012 ft 181 kts 40°
2026-05-07 10:56 55.65533 12.71546 2537 ft 200 kts 47°
2026-05-07 10:56 55.66034 12.73950 2997 ft 226 kts 89°
2026-05-07 10:56 55.65472 12.76726 3438 ft 255 kts 127°
2026-05-07 10:56 55.64145 12.79046 4066 ft 273 kts 139°
2026-05-07 10:57 55.62655 12.81297 4908 ft 281 kts 139°
2026-05-07 10:57 55.61183 12.83635 5809 ft 285 kts 137°
2026-05-07 10:57 55.59744 12.86165 6704 ft 289 kts 135°
2026-05-07 10:57 55.58337 12.88781 7563 ft 294 kts 135°
2026-05-07 10:58 55.56888 12.91489 8121 ft 311 kts 135°
2026-05-07 10:58 55.55339 12.94364 8663 ft 326 kts 136°
2026-05-07 10:58 55.53764 12.97279 9497 ft 330 kts 136°
2026-05-07 10:58 55.52173 13.00219 10428 ft 330 kts 137°
2026-05-07 10:59 55.50573 13.03163 11348 ft 330 kts 137°
2026-05-07 10:59 55.48949 13.06141 12259 ft 330 kts 138°
2026-05-07 10:59 55.47341 13.09082 13070 ft 332 kts 138°
2026-05-07 10:59 55.45718 13.12047 13783 ft 337 kts 138°
2026-05-07 11:00 55.44056 13.15078 14474 ft 342 kts 138°
2026-05-07 11:00 55.42383 13.18131 15167 ft 346 kts 137°
2026-05-07 11:00 55.40683 13.21230 15848 ft 350 kts 138°
2026-05-07 11:00 55.38967 13.24356 16511 ft 354 kts 138°
2026-05-07 11:01 55.37223 13.27529 17158 ft 358 kts 138°
2026-05-07 11:01 55.35473 13.30709 17784 ft 362 kts 138°
2026-05-07 11:01 55.33677 13.33968 18400 ft 366 kts 138°
2026-05-07 11:01 55.31898 13.37193 18986 ft 370 kts 138°
2026-05-07 11:02 55.30066 13.40510 19568 ft 373 kts 138°
2026-05-07 11:02 55.28223 13.43839 20135 ft 377 kts 138°
2026-05-07 11:02 55.26340 13.47233 20696 ft 381 kts 138°
2026-05-07 11:02 55.24469 13.50601 21236 ft 384 kts 138°
2026-05-07 11:03 55.22561 13.54029 21768 ft 388 kts 138°
2026-05-07 11:03 55.20640 13.57474 22286 ft 392 kts 138°
2026-05-07 11:03 55.18733 13.60892 22784 ft 395 kts 138°
2026-05-07 11:03 55.16761 13.64425 23284 ft 399 kts 138°
2026-05-07 11:04 55.14796 13.67947 23760 ft 402 kts 139°
2026-05-07 11:04 55.12814 13.71502 24226 ft 405 kts 139°
2026-05-07 11:04 55.10820 13.75072 24675 ft 409 kts 139°
2026-05-07 11:04 55.08784 13.78706 25115 ft 412 kts 139°
2026-05-07 11:05 55.06762 13.82306 25536 ft 415 kts 139°
2026-05-07 11:05 55.04702 13.85967 25952 ft 418 kts 139°
2026-05-07 11:05 55.02647 13.89611 26351 ft 421 kts 139°
2026-05-07 11:05 55.00572 13.93285 26718 ft 425 kts 139°
2026-05-07 11:06 54.98482 13.96979 27058 ft 429 kts 139°
2026-05-07 11:06 54.96372 14.00704 27391 ft 433 kts 139°
2026-05-07 11:06 54.94223 14.04491 27717 ft 438 kts 139°
2026-05-07 11:06 54.92063 14.08291 28076 ft 441 kts 139°
2026-05-07 11:07 54.89880 14.12124 28417 ft 444 kts 139°
2026-05-07 11:07 54.87659 14.16006 28719 ft 448 kts 138°
2026-05-07 11:07 54.85401 14.19953 29021 ft 452 kts 138°
2026-05-07 11:07 54.83136 14.23917 29352 ft 455 kts 138°
2026-05-07 11:08 54.80861 14.27900 29678 ft 458 kts 138°
2026-05-07 11:08 54.78591 14.31838 30005 ft 460 kts 139°
2026-05-07 11:08 54.76179 14.35654 30323 ft 461 kts 143°
2026-05-07 11:08 54.73656 14.39270 30630 ft 463 kts 144°
2026-05-07 11:09 54.71124 14.42845 30927 ft 465 kts 144°
2026-05-07 11:09 54.68541 14.46487 31250 ft 467 kts 144°
2026-05-07 11:09 54.65979 14.50100 31645 ft 467 kts 144°
2026-05-07 11:09 54.63450 14.53668 32030 ft 467 kts 144°
2026-05-07 11:10 54.60896 14.57265 32405 ft 466 kts 144°
2026-05-07 11:10 54.58361 14.60831 32759 ft 467 kts 144°
2026-05-07 11:10 54.55780 14.64455 33095 ft 467 kts 144°
2026-05-07 11:10 54.53243 14.68023 33430 ft 467 kts 144°
2026-05-07 11:11 54.50667 14.71646 33757 ft 467 kts 144°
2026-05-07 11:11 54.48132 14.75202 34067 ft 467 kts 144°
2026-05-07 11:11 54.45570 14.78785 34377 ft 467 kts 144°
2026-05-07 11:11 54.43031 14.82327 34685 ft 466 kts 144°
2026-05-07 11:12 54.40482 14.85877 34991 ft 466 kts 144°
2026-05-07 11:12 54.37919 14.89436 35288 ft 465 kts 144°
2026-05-07 11:12 54.35396 14.92934 35569 ft 464 kts 144°
2026-05-07 11:12 54.32853 14.96455 35846 ft 464 kts 144°
2026-05-07 11:13 54.30347 14.99919 36109 ft 463 kts 144°
2026-05-07 11:13 54.27812 15.03413 36361 ft 463 kts 144°
2026-05-07 11:13 54.25311 15.06961 36589 ft 464 kts 142°
2026-05-07 11:13 54.22866 15.10599 36816 ft 463 kts 142°
2026-05-07 11:14 54.20401 15.14275 37022 ft 463 kts 142°
2026-05-07 11:14 54.17976 15.17889 37055 ft 464 kts 142°
2026-05-07 11:14 54.13076 15.25176 37065 ft 465 kts 142°
2026-05-07 11:15 54.08183 15.32426 37066 ft 465 kts 142°
2026-05-07 11:15 54.03233 15.39735 37066 ft 465 kts 142°
2026-05-07 11:16 53.98301 15.46992 37066 ft 465 kts 142°
2026-05-07 11:16 53.93344 15.54263 37067 ft 465 kts 142°
2026-05-07 11:17 53.88406 15.61476 37066 ft 465 kts 142°
2026-05-07 11:17 53.83398 15.68743 37066 ft 465 kts 142°
2026-05-07 11:18 53.78401 15.76008 37066 ft 465 kts 142°
2026-05-07 11:18 53.73367 15.83302 37066 ft 465 kts 142°
2026-05-07 11:19 53.68333 15.90567 37066 ft 465 kts 142°
2026-05-07 11:19 53.63270 15.97851 37066 ft 465 kts 142°
2026-05-07 11:20 53.58217 16.05095 37066 ft 465 kts 142°
2026-05-07 11:20 53.53124 16.12373 37065 ft 465 kts 142°
2026-05-07 11:21 53.48038 16.19616 37059 ft 465 kts 142°
2026-05-07 11:21 53.42913 16.26892 37048 ft 465 kts 142°
2026-05-07 11:22 53.37827 16.34089 37033 ft 465 kts 142°
2026-05-07 11:22 53.32692 16.41332 37022 ft 465 kts 142°
2026-05-07 11:23 53.27576 16.48524 37016 ft 465 kts 142°
2026-05-07 11:23 53.22395 16.55786 37013 ft 465 kts 142°
2026-05-07 11:24 53.17249 16.62972 37012 ft 465 kts 142°
2026-05-07 11:24 53.12084 16.70182 37011 ft 464 kts 143°
2026-05-07 11:25 53.06898 16.77403 37008 ft 469 kts 143°
2026-05-07 11:25 53.01673 16.84630 37008 ft 477 kts 143°
2026-05-07 11:26 52.96279 16.92057 37010 ft 480 kts 142°
2026-05-07 11:26 52.90975 16.99353 37013 ft 475 kts 141°
2026-05-07 11:27 52.85749 17.06493 37013 ft 469 kts 141°
2026-05-07 11:27 52.80487 17.13650 37012 ft 469 kts 141°
2026-05-07 11:28 52.75251 17.20765 37011 ft 469 kts 141°
2026-05-07 11:28 52.70036 17.27836 37011 ft 469 kts 141°
2026-05-07 11:29 52.64821 17.34887 37011 ft 469 kts 141°
2026-05-07 11:29 52.59559 17.41979 37011 ft 469 kts 141°
2026-05-07 11:30 52.54323 17.49014 37011 ft 469 kts 141°
2026-05-07 11:30 52.49100 17.56009 37011 ft 469 kts 141°
2026-05-07 11:31 52.43832 17.63041 37011 ft 469 kts 141°
2026-05-07 11:31 52.38609 17.70012 37011 ft 469 kts 142°
2026-05-07 11:32 52.30678 17.80556 37011 ft 469 kts 142°
2026-05-07 11:33 52.25396 17.87535 37011 ft 469 kts 142°
2026-05-07 11:33 52.20111 17.94491 37011 ft 469 kts 142°
2026-05-07 11:34 52.14840 18.01406 37011 ft 469 kts 142°
2026-05-07 11:34 52.09502 18.08388 37011 ft 469 kts 142°
2026-05-07 11:35 52.04205 18.15294 37011 ft 469 kts 142°
2026-05-07 11:35 51.98898 18.22192 37011 ft 469 kts 142°
2026-05-07 11:36 51.93587 18.29073 37007 ft 469 kts 142°
2026-05-07 11:36 51.88288 18.35911 36993 ft 469 kts 142°
2026-05-07 11:37 51.82993 18.42690 36977 ft 469 kts 142°
2026-05-07 11:37 51.77718 18.49442 36966 ft 469 kts 142°
2026-05-07 11:38 51.72430 18.56205 36960 ft 469 kts 142°
2026-05-07 11:38 51.67090 18.63016 36958 ft 469 kts 142°
2026-05-07 11:39 51.61776 18.69793 36956 ft 469 kts 143°
2026-05-07 11:39 51.56498 18.76511 36957 ft 469 kts 143°
2026-05-07 11:40 51.51176 18.83248 36957 ft 469 kts 143°
2026-05-07 11:40 51.45814 18.90007 36957 ft 469 kts 143°
2026-05-07 11:41 51.40450 18.96747 36957 ft 469 kts 143°
2026-05-07 11:41 51.35098 19.03446 36956 ft 469 kts 143°
2026-05-07 11:42 51.29792 19.10068 36957 ft 469 kts 142°
2026-05-07 11:42 51.24499 19.16660 36958 ft 469 kts 142°
2026-05-07 11:43 51.19127 19.23334 36967 ft 469 kts 142°
2026-05-07 11:43 51.13762 19.29982 36974 ft 468 kts 142°
2026-05-07 11:44 51.08424 19.36576 36973 ft 468 kts 142°
2026-05-07 11:44 51.03044 19.43197 36967 ft 468 kts 142°
2026-05-07 11:45 50.97589 19.49559 36962 ft 469 kts 147°
2026-05-07 11:45 50.91749 19.55217 36961 ft 471 kts 149°
2026-05-07 11:46 50.85882 19.60784 36957 ft 472 kts 149°
2026-05-07 11:46 50.80044 19.66325 36956 ft 472 kts 149°
2026-05-07 11:47 50.74241 19.71866 36956 ft 472 kts 149°
2026-05-07 11:47 50.68506 19.77324 36957 ft 472 kts 149°
2026-05-07 11:48 50.62815 19.82713 36956 ft 473 kts 149°
2026-05-07 11:48 50.57157 19.88055 36956 ft 472 kts 149°
2026-05-07 11:49 50.51442 19.93431 36957 ft 472 kts 149°
2026-05-07 11:49 50.45714 19.98805 36956 ft 472 kts 149°
2026-05-07 11:50 50.39977 20.04172 36957 ft 472 kts 149°
2026-05-07 11:50 50.34254 20.09511 36957 ft 472 kts 149°
2026-05-07 11:51 50.28585 20.14786 36957 ft 472 kts 149°
2026-05-07 11:51 50.22855 20.20101 36956 ft 472 kts 149°
2026-05-07 11:52 50.17112 20.25414 36957 ft 473 kts 149°
2026-05-07 11:52 50.11374 20.30707 36956 ft 472 kts 149°
2026-05-07 11:53 50.05662 20.35961 36956 ft 473 kts 149°
2026-05-07 11:53 49.99881 20.41265 36957 ft 472 kts 149°
2026-05-07 11:54 49.94125 20.46530 36956 ft 472 kts 149°
2026-05-07 11:54 49.88325 20.51818 36955 ft 472 kts 149°
2026-05-07 11:55 49.82460 20.57126 36957 ft 473 kts 149°
2026-05-07 11:55 49.76640 20.62392 36962 ft 472 kts 149°
2026-05-07 11:56 49.70753 20.67723 36971 ft 472 kts 150°
2026-05-07 11:56 49.64904 20.73030 36977 ft 472 kts 150°
2026-05-07 11:57 49.59016 20.78338 36979 ft 472 kts 150°
2026-05-07 11:57 49.53104 20.83642 36982 ft 472 kts 150°
2026-05-07 11:58 49.47239 20.88892 36981 ft 472 kts 150°
2026-05-07 11:58 49.41343 20.94151 36982 ft 471 kts 150°
2026-05-07 11:59 49.35443 20.99402 36981 ft 469 kts 150°
2026-05-07 11:59 49.29721 21.04753 36982 ft 467 kts 148°
2026-05-07 12:00 49.24014 21.10225 36983 ft 465 kts 147°
2026-05-07 12:00 49.18386 21.15610 36982 ft 464 kts 147°
2026-05-07 12:01 49.12776 21.20968 36981 ft 463 kts 147°
2026-05-07 12:01 49.07164 21.26312 36980 ft 464 kts 147°
2026-05-07 12:02 49.01514 21.31675 36980 ft 465 kts 147°
2026-05-07 12:02 48.95880 21.37008 36980 ft 466 kts 147°
2026-05-07 12:03 48.90219 21.42357 36982 ft 467 kts 147°
2026-05-07 12:03 48.84579 21.47643 36980 ft 467 kts 148°
2026-05-07 12:04 48.78992 21.52873 36981 ft 467 kts 147°
2026-05-07 12:04 48.73355 21.58150 36980 ft 466 kts 147°
2026-05-07 12:05 48.67674 21.63460 36980 ft 467 kts 147°
2026-05-07 12:05 48.61992 21.68775 36980 ft 467 kts 148°
2026-05-07 12:06 48.56383 21.74012 36983 ft 466 kts 148°
2026-05-07 12:06 48.50674 21.79314 36991 ft 467 kts 148°
2026-05-07 12:07 48.44924 21.84633 37006 ft 466 kts 148°
2026-05-07 12:07 48.39214 21.89982 37022 ft 466 kts 146°
2026-05-07 12:08 48.33817 21.96178 37029 ft 465 kts 138°
2026-05-07 12:08 48.28936 22.03168 37033 ft 465 kts 134°
2026-05-07 12:09 48.24143 22.10219 37034 ft 465 kts 134°
2026-05-07 12:09 48.19292 22.17304 37036 ft 465 kts 134°
2026-05-07 12:10 48.14442 22.24354 37036 ft 465 kts 134°
2026-05-07 12:10 48.09651 22.31296 37036 ft 465 kts 134°
2026-05-07 12:11 48.04873 22.38199 37035 ft 465 kts 135°
2026-05-07 12:11 48.00214 22.44911 37037 ft 465 kts 134°
2026-05-07 12:12 47.95520 22.51655 37035 ft 465 kts 134°
2026-05-07 12:12 47.90854 22.58343 37037 ft 465 kts 135°
2026-05-07 12:13 47.86142 22.65045 37044 ft 465 kts 135°
2026-05-07 12:13 47.81433 22.71748 37055 ft 465 kts 135°
2026-05-07 12:14 47.76727 22.78445 37061 ft 465 kts 135°
2026-05-07 12:14 47.72031 22.85120 37065 ft 464 kts 136°
2026-05-07 12:15 47.67381 22.91715 37066 ft 460 kts 137°
2026-05-07 12:15 47.62764 22.98221 37067 ft 453 kts 138°
2026-05-07 12:16 47.58229 23.04585 37067 ft 446 kts 138°
2026-05-07 12:16 47.53724 23.10902 37064 ft 445 kts 138°
2026-05-07 12:17 47.49198 23.17234 37063 ft 445 kts 138°
2026-05-07 12:17 47.44716 23.23492 37065 ft 445 kts 138°
2026-05-07 12:18 47.40197 23.29787 37065 ft 445 kts 138°
2026-05-07 12:18 47.35640 23.36119 37063 ft 445 kts 138°
2026-05-07 12:19 47.31056 23.42471 37064 ft 445 kts 138°
2026-05-07 12:19 47.26494 23.48778 37061 ft 445 kts 138°
2026-05-07 12:20 47.21960 23.55030 37054 ft 445 kts 138°
2026-05-07 12:20 47.17432 23.61264 37047 ft 445 kts 138°
2026-05-07 12:21 47.12892 23.67500 37042 ft 445 kts 139°
2026-05-07 12:21 47.08369 23.73719 37039 ft 445 kts 139°
2026-05-07 12:22 47.03820 23.79947 37037 ft 445 kts 139°
2026-05-07 12:22 46.99265 23.86167 37037 ft 446 kts 139°
2026-05-07 12:23 46.94705 23.92373 37037 ft 447 kts 140°
2026-05-07 12:23 46.90106 23.98612 37036 ft 448 kts 141°
2026-05-07 12:24 46.85503 24.04803 37035 ft 449 kts 141°
2026-05-07 12:24 46.80882 24.11000 37034 ft 449 kts 141°
2026-05-07 12:25 46.76288 24.17163 37028 ft 450 kts 141°
2026-05-07 12:25 46.71689 24.23331 37020 ft 449 kts 141°
2026-05-07 12:26 46.67093 24.29485 37016 ft 449 kts 141°
2026-05-07 12:26 46.62474 24.35654 37012 ft 450 kts 141°
2026-05-07 12:27 46.57825 24.41851 37011 ft 449 kts 141°
2026-05-07 12:27 46.53207 24.47991 37010 ft 449 kts 141°
2026-05-07 12:28 46.48565 24.54148 37009 ft 449 kts 141°
2026-05-07 12:28 46.43885 24.60340 37010 ft 450 kts 141°
2026-05-07 12:29 46.39246 24.66466 37011 ft 449 kts 141°
2026-05-07 12:29 46.34601 24.72615 37011 ft 449 kts 142°
2026-05-07 12:30 46.29958 24.78732 37011 ft 449 kts 142°
2026-05-07 12:30 46.25337 24.84791 37009 ft 450 kts 142°
2026-05-07 12:31 46.20706 24.90848 37011 ft 449 kts 142°
2026-05-07 12:31 46.16063 24.96904 37010 ft 449 kts 142°
2026-05-07 12:32 46.11420 25.02945 37010 ft 449 kts 142°
2026-05-07 12:32 46.06799 25.08943 37009 ft 449 kts 142°
2026-05-07 12:33 45.99799 25.18003 37012 ft 449 kts 142°
2026-05-07 12:33 45.95152 25.23999 37011 ft 449 kts 142°
2026-05-07 12:34 45.90461 25.30038 37010 ft 449 kts 141°
2026-05-07 12:34 45.85765 25.36044 37009 ft 450 kts 142°
2026-05-07 12:35 45.81041 25.42068 37009 ft 449 kts 141°
2026-05-07 12:35 45.76378 25.48024 37008 ft 448 kts 141°
2026-05-07 12:36 45.71713 25.53972 37018 ft 450 kts 142°
2026-05-07 12:36 45.67035 25.59919 37028 ft 450 kts 141°
2026-05-07 12:37 45.62317 25.65913 36696 ft 449 kts 142°
2026-05-07 12:37 45.59959 25.68916 36370 ft 445 kts 142°
2026-05-07 12:37 45.57653 25.71852 35934 ft 442 kts 142°
2026-05-07 12:38 45.55346 25.74785 35374 ft 441 kts 142°
2026-05-07 12:38 45.53016 25.77736 34812 ft 441 kts 142°
2026-05-07 12:38 45.50700 25.80660 34220 ft 441 kts 142°
2026-05-07 12:38 45.48362 25.83607 33599 ft 442 kts 142°
2026-05-07 12:39 45.46053 25.86507 32928 ft 444 kts 142°
2026-05-07 12:39 45.43693 25.89468 32197 ft 447 kts 142°
2026-05-07 12:39 45.41380 25.92366 31482 ft 450 kts 141°
2026-05-07 12:39 45.39032 25.95312 30791 ft 452 kts 141°
2026-05-07 12:40 45.36600 25.98357 30269 ft 448 kts 141°
2026-05-07 12:40 45.34198 26.01367 29744 ft 445 kts 141°
2026-05-07 12:40 45.31863 26.04290 29244 ft 441 kts 140°
2026-05-07 12:40 45.29556 26.07170 28739 ft 438 kts 140°
2026-05-07 12:41 45.27288 26.10000 28243 ft 435 kts 140°
2026-05-07 12:41 45.25000 26.12852 27747 ft 432 kts 140°
2026-05-07 12:41 45.22761 26.15639 27257 ft 429 kts 140°
2026-05-07 12:41 45.20517 26.18429 26768 ft 425 kts 139°
2026-05-07 12:42 45.18265 26.21227 26272 ft 422 kts 139°
2026-05-07 12:42 45.16065 26.23960 25789 ft 419 kts 139°
2026-05-07 12:42 45.13870 26.26683 25316 ft 416 kts 139°
2026-05-07 12:42 45.11702 26.29367 24840 ft 413 kts 139°
2026-05-07 12:43 45.09525 26.32063 24364 ft 410 kts 138°
2026-05-07 12:43 45.07385 26.34710 23900 ft 406 kts 140°
2026-05-07 12:43 45.05255 26.37355 23480 ft 398 kts 139°
2026-05-07 12:43 45.03161 26.39933 23092 ft 391 kts 140°
2026-05-07 12:44 45.00966 26.42194 22716 ft 382 kts 151°
2026-05-07 12:44 44.98512 26.43608 22316 ft 376 kts 165°
2026-05-07 12:44 44.95953 26.44216 21892 ft 372 kts 173°
2026-05-07 12:44 44.93370 26.44579 21457 ft 369 kts 174°
2026-05-07 12:45 44.90783 26.44917 21023 ft 366 kts 174°
2026-05-07 12:45 44.88277 26.45252 20599 ft 363 kts 174°
2026-05-07 12:45 44.85738 26.45604 20167 ft 360 kts 174°
2026-05-07 12:45 44.83239 26.45956 19743 ft 358 kts 173°
2026-05-07 12:46 44.80740 26.46311 19311 ft 355 kts 173°
2026-05-07 12:46 44.78275 26.46663 18882 ft 353 kts 173°
2026-05-07 12:46 44.75810 26.47015 18460 ft 351 kts 174°
2026-05-07 12:46 44.73360 26.46929 18003 ft 351 kts 191°
2026-05-07 12:47 44.71049 26.45543 17557 ft 351 kts 214°
2026-05-07 12:47 44.69341 26.43118 17130 ft 352 kts 235°
2026-05-07 12:47 44.68375 26.39922 16695 ft 353 kts 257°
2026-05-07 12:47 44.68049 26.36439 16282 ft 351 kts 263°
2026-05-07 12:48 44.67833 26.33022 15874 ft 350 kts 264°
2026-05-07 12:48 44.67619 26.29628 15471 ft 348 kts 264°
2026-05-07 12:48 44.67387 26.26186 15059 ft 347 kts 263°
2026-05-07 12:48 44.67132 26.22612 14632 ft 345 kts 263°
2026-05-07 12:49 44.66879 26.19199 14363 ft 339 kts 263°
2026-05-07 12:49 44.66634 26.15931 14270 ft 330 kts 263°
2026-05-07 12:49 44.66396 26.12777 14228 ft 316 kts 263°
2026-05-07 12:49 44.66167 26.09734 14053 ft 307 kts 263°
2026-05-07 12:50 44.65944 26.06778 13756 ft 300 kts 263°
2026-05-07 12:50 44.65720 26.03829 13300 ft 299 kts 263°
2026-05-07 12:50 44.65497 26.00916 12829 ft 296 kts 263°
2026-05-07 12:50 44.65277 25.98049 12291 ft 294 kts 263°
2026-05-07 12:51 44.65052 25.95142 11658 ft 296 kts 263°
2026-05-07 12:51 44.64830 25.92273 11030 ft 296 kts 263°
2026-05-07 12:51 44.64605 25.89361 10395 ft 297 kts 263°
2026-05-07 12:51 44.64381 25.86483 9767 ft 297 kts 263°
2026-05-07 12:52 44.64154 25.83577 9134 ft 297 kts 263°
2026-05-07 12:52 44.63921 25.80588 8481 ft 296 kts 264°
2026-05-07 12:52 44.63692 25.77654 7839 ft 295 kts 263°
2026-05-07 12:52 44.63465 25.74770 7207 ft 295 kts 263°
2026-05-07 12:53 44.63228 25.71872 6568 ft 294 kts 261°
2026-05-07 12:53 44.62509 25.69231 5979 ft 289 kts 230°
2026-05-07 12:53 44.60940 25.67570 5586 ft 278 kts 201°
2026-05-07 12:53 44.59041 25.67068 5186 ft 271 kts 177°
2026-05-07 12:54 44.57217 25.67653 4803 ft 264 kts 154°
2026-05-07 12:54 44.55746 25.69134 4440 ft 259 kts 131°
2026-05-07 12:54 44.54802 25.71277 4084 ft 253 kts 110°
2026-05-07 12:54 44.54286 25.73620 3762 ft 248 kts 102°
2026-05-07 12:55 44.54074 25.75988 3510 ft 240 kts 90°
2026-05-07 12:55 44.54178 25.78352 3255 ft 233 kts 82°
2026-05-07 12:55 44.54407 25.80618 3001 ft 229 kts 82°
2026-05-07 12:55 44.54619 25.82822 2749 ft 226 kts 82°
2026-05-07 12:56 44.54799 25.84988 2538 ft 220 kts 83°
2026-05-07 12:56 44.54955 25.87076 2503 ft 206 kts 84°
2026-05-07 12:56 44.55093 25.89015 2542 ft 188 kts 84°
2026-05-07 12:56 44.55222 25.90817 2398 ft 177 kts 84°
2026-05-07 12:57 44.55343 25.92499 2224 ft 167 kts 83°
2026-05-07 12:57 44.55461 25.94122 2043 ft 158 kts 84°
2026-05-07 12:57 44.55571 25.95615 1836 ft 141 kts 84°
2026-05-07 12:57 44.55668 25.96942 1663 ft 134 kts 83°
2026-05-07 12:58 44.55765 25.98241 1510 ft 133 kts 83°
2026-05-07 12:58 44.55863 25.99553 1353 ft 133 kts 83°
2026-05-07 12:58 44.55958 26.00853 1195 ft 133 kts 83°
2026-05-07 12:58 44.56056 26.02163 1033 ft 133 kts 83°
2026-05-07 12:59 44.56152 26.03460 865 ft 132 kts 83°
2026-05-07 12:59 44.56248 26.04753 703 ft 132 kts 83°
2026-05-07 12:59 44.56346 26.06060 540 ft 132 kts 83°
2026-05-07 12:59 44.56444 26.07369 381 ft 131 kts 83°
2026-05-07 13:00 44.56534 26.08619 305 ft 113 kts 83°
2026-05-07 13:00 44.56603 26.09476 308 ft 63 kts 85°
2026-05-07 13:00 44.56636 26.09947 307 ft 39 kts 85°
2026-05-07 13:00 44.56662 26.10304 304 ft 32 kts 83°
2026-05-07 13:01 44.56683 26.10569 307 ft 16 kts 84°
2026-05-07 13:01 44.56691 26.10710 306 ft 12 kts 85°
2026-05-07 13:01 44.56760 26.10762 304 ft 13 kts 355°
2026-05-07 13:01 44.56863 26.10751 304 ft 14 kts 355°
2026-05-07 13:02 44.56968 26.10734 304 ft 15 kts 340°
2026-05-07 13:02 44.57040 26.10622 305 ft 15 kts 301°
2026-05-07 13:02 44.57066 26.10483 307 ft 14 kts 263°
2026-05-07 13:02 44.57054 26.10331 307 ft 16 kts 264°
2026-05-07 13:03 44.57041 26.10156 307 ft 18 kts 264°
2026-05-07 13:03 44.57025 26.09964 309 ft 19 kts 263°
2026-05-07 13:03 44.57009 26.09765 310 ft 20 kts 263°
2026-05-07 13:03 44.56994 26.09551 310 ft 22 kts 264°
2026-05-07 13:04 44.56977 26.09325 310 ft 23 kts 263°
2026-05-07 13:04 44.56957 26.09083 307 ft 24 kts 264°
2026-05-07 13:04 44.56940 26.08840 306 ft 24 kts 263°
2026-05-07 13:04 44.56922 26.08621 309 ft 18 kts 262°
2026-05-07 13:05 44.56894 26.08463 309 ft 15 kts 271°
2026-05-07 13:05 44.56970 26.08396 312 ft 13 kts 354°
2026-05-07 13:05 44.57061 26.08381 313 ft 13 kts 352°
2026-05-07 13:05 44.57152 26.08365 313 ft 12 kts 354°
2026-05-07 13:06 44.57219 26.08319 315 ft 10 kts 279°
2026-05-07 13:06 44.57213 26.08221 316 ft 8 kts 264°
2026-05-07 13:06 44.57208 26.08142 317 ft 7 kts 265°
2026-05-07 13:06 44.57197 26.08103 317 ft 3 kts 198°
2026-05-07 13:07 44.57172 26.08106 317 ft 3 kts 173°
2026-05-07 13:07 44.57143 26.08111 317 ft 2 kts 174°
2026-05-07 13:07 44.57141 26.08111 317 ft 0 kts 174°